PRÉPARATION DES VOLS

Pour bien préparer vos sorties, pensez à télécharger la fiche technique de votre avion, la check-list, le manuel de vol, le devis de centrage ou encore un modèle de Log de Nav.

Robin DR 400 120 (F-GSBN)

Type : 3/4 places instruction, entraînement, voyage.

Moteur : Lycoming 4 cyl. à plat, 120 cv.

Performances : 190 km/h

Autonomie : 4 h soit environ 760 km franchissables.

Avionique : 1 radio com Bendix/King, 1 VOR, 1 transpondeur mode S, intercom 2 voies type.

 

Robin DR 400 120 (F-GNNY)

Type : 3/4 places instruction, entraînement, voyage.

Moteur : Lycoming 4 cyl. à plat, 120 cv.

Performances : 190 km/h

Autonomie : 4 h soit environ 760 km franchissables.

Avionique : 1 radio com Bendix/King, 1 VOR, 1 transpondeur mode S, intercom 2 voies type.

 

Robin DR 400 (F-BXRY)

Type : 2/3 places en instruction & entraînement (devis de centrage).

Moteur : Lycoming 4 cyl. à plat, 108 cv.

Performances : 180 km/h

Autonomie : 4 h soit environ 720 km franchissables.

Avionique : 1 radio com Bendix/King, 1 VOR, 1 transpondeur.

Robin DR 400 140 B (F-GHPJ)

Type : 4 places, pour entraînement et voyage.

Moteur : Robin Lycoming 4 cyl. à plat, 160 cv.

Performances : 206 km/h

Autonomie : 3 h 30 min soit environ 720 km de distance franchissable.

Avionique : 1 radio com Bendix/King, 1 VOR, 1 transpondeur mode S, intercom 4 voies.

 

Robin DR 400 180 (F-BVMP)

Type : 4 places pour le voyage.

Moteur : Lycoming 4 cyl. à plat, 180 cv.

Performances : 250 km/h

Autonomie : 4 h soit environ 1000 km franchissables.

Avionique : 1 radio 8.33, 1 transpondeur mode S et 1 Garmin GNS 430

 

Piper Archer II (PA 28) (F-GALA)

 


Sab’in Shoot, photographe à Villepreux

Type : 4 places, pour entraînement, voyage.

Moteur : Lycoming 4 cyl. à plat, 180 cv.

Performances : 220 km/h

Autonomie : 5 h30 soit environ 1200 km de distance franchissable.

Avionique : Radio intégrée au système GPS Garmin GNS 430, 2 VOR, 1 DME, 1 transpondeur mode S, pilote automatique 2 axes, intercom 4 voies et boite de mélange.

 

Télécharger l’aide mémoire de la radio GTR 225A

Télécharger l’aide mémoire de la radio GNC 255A

Télécharger un log de nav

Log 1

Cliquez sur le formulaire pour le télécharger

Log_1*Notice d’utilisation*

Ce Log de Nav a été optimisé pour rendre les calculs automatiques sous Excel. Indiquez simplement vos points de report, les altitudes et les distances en NM. La feuille calcule alors le temps sans vent pour chaque étape et donne le total, qu’elle convertit en heure-minutes. Elle calcule également la distance totale et la convertit en kilomètres. Enfin, elle affiche le résultat du devis carburant, calculé automatiquement par le 2ème feuillet. Vous pouvez également inscrire préalablement les fréquences Radio et Nav. Les autres cases sont à remplir pendant le vol : date, top départ, heure estimée (grisée), heure réelle,horamètre, Atis…
Bons vols à tous !
Guillaume

Log 2

Cliquez sur le formulaire pour le télécharger

Log_2

Log 3

 Cliquez sur le formulaire pour le télécharger

Log_3

L’alphabet Morse et l’alphabet international

Alphabet International

Nos coordonnées

Aéroclub Renault

Aérodrome de Chavenay

78450 Chavenay-Villepreux

telephone

Atis

Télécharger la VAC LFPX

Télécharger le calcul de centrage

Télécharger la feuille ATIS

Télécharger le mémo VFR 2019-2020

METARS / TAF de Toussus, Evreux, Orly et Roissy

Toussus

LFPN 131400Z AUTO 33007KT 290V040 CAVOK 26/06 Q1021 NOSIG

TAF TAF AMD LFPN 132015Z 1320/1420 17005KT 5000 BKN025 TEMPO 1320/1324 2000 BR OVC008 PROB30 TEMPO 1320/1324 0800 FG OVC002

Evreux

LFOE 131500Z AUTO 32006KT 250V040 CAVOK 26/05 Q1022 NOSIG

TAF TAF AMD LFOE 131428Z 1315/1415 34008KT CAVOK TEMPO 1315/1319 34010G20KT BECMG 1402/1404 24010KT BKN017 TEMPO 1405/1408 4000 -RA TEMPO 1408/1411 4000 -RA BKN008 BKN014 TEMPO 1411/1414 31015G25KT 4000 SHRA BKN010TCU

Orly

LFPO 131500Z 07004KT 330V140 CAVOK 27/06 Q1021 NOSIG

TAF LFPO 131100Z 1312/1418 34005KT CAVOK BECMG 1404/1407 27005KT BECMG 1407/1409 BKN025 PROB40 TEMPO 1409/1413 7000 -RA BKN017 BKN020 TEMPO 1413/1418 -SHRA PROB40 TEMPO 1414/1416 25015G25KT 4000 SHRA SCT018TCU BKN027

Roissy

LFPG 131500Z VRB06KT CAVOK 26/05 Q1021 NOSIG

TAF LFPG 131100Z 1312/1418 35010KT CAVOK TX27/1315Z TN16/1406Z PROB40 TEMPO 1413/1416 -RA BKN012

Share This